Tracking 31027 objects as of 19-Jul-2025
HD Live streaming from Space Station
objects crossing your sky now

COSMOS 2491 DEB

Track COSMOS 2491 DEB now!
10-day predictions


NORAD ID: 47111
Int'l Code: 2013-076AG
Perigee: 1,360.5 km
Apogee: 1,522.1 km
Inclination: 82.4 °
Period: 114.5 minutes
Semi major axis: 7812 km
RCS: Unknown
Launch date: December 25, 2013
Source: Commonwealth of Independent States (former USSR) (CIS)
Launch site: PLESETSK MISSILE AND SPACE COMPLEX (PKMTR)

Note: This is SATELLITE DEBRIS
Your satellite tracking list
ST5-A
Track 1 satellite(s)




NASA's NSSDC Master Catalog

Two Line Element Set (TLE):
1 47111U 13076AG  25199.70643257  .00003397  00000-0  19841-1 0  9997
2 47111  82.4479 355.2349 0103453 224.0060 135.2758 12.57288793248941
Source of the keplerian elements: AFSPC